Temp
36 36 35 35 33 29 26 25 26 27 28 30 30 31 31 31 30 31 30 30 29 28 27 26 25 26 26 26 26 26 25 25
36 36 36 34 33 32 25 28 28 27 26 27 30 30 30 33 30 29 30 29 28 27 27 26 26 26 27 26 25 25 25 25
34 34 33 34 32 27 25 24 24 26 25 26 28 28 28 30 31 29 29 28 27 27 27 26 26 26 26 26 25 25 25 25
35 34 34 32 32 28 27 30 24 25 26 31 28 29 29 29 29 30 30 28 27 26 27 25 25 25 25 26 25 25 25 25
31 30 33 35 35 31 26 24 27 27 28 30 31 29 29 30 28 28 28 27 27 26 26 26 24 25 25 25 25 26 25 25
28 31 32 32 34 34 28 27 28 28 32 34 32 29 29 29 30 28 29 27 27 26 26 26 25 25 25 26 26 26 25 25
29 31 34 35 36 35 33 31 32 31 30 31 31 28 30 31 31 30 27 27 27 27 26 26 25 25 25 26 26 26 25 24
33 32 32 35 34 34 34 35 34 31 32 31 29 29 29 28 28 26 28 29 28 28 26 26 26 25 25 26 26 26 25 24
31 31 32 31 33 30 30 29 30 28 30 29 28 29 28 28 28 28 28 29 29 28 27 27 26 26 25 25 26 24 25 24
27 29 31 31 31 31 30 30 29 29 29 29 29 29 28 28 28 29 31 29 28 28 28 28 27 26 26 22 22 22 23 23
27 26 30 31 31 33 28 28 30 28 29 29 29 29 29 28 25 24 23 23 24 29 29 27 26 23 21 20 17 16 16 19
25 30 29 29 30 31 28 27 30 29 29 29 27 26 25 27 25 23 22 20 21 26 20 19 18 18 19 18 18 18 17 17
25 28 28 30 30 30 31 27 29 30 29 29 28 26 27 25 23 22 21 19 18 18 17 18 21 22 19 18 20 17 17 17
24 25 28 30 30 28 26 27 29 29 28 28 26 27 26 22 21 20 20 19 20 19 18 19 21 22 18 18 18 20 17 18
26 25 25 27 27 27 26 28 30 29 27 27 26 26 22 21 20 20 19 18 18 17 16 18 18 19 16 16 16 20 18 18
25 26 26 26 27 27 28 29 25 25 25 24 24 22 22 21 19 19 19 17 17 16 16 16 17 17 17 18 18 18 18 19
23 26 26 27 27 28 29 26 25 24 24 23 22 20 20 20 19 19 18 18 18 18 17 17 19 18 17 18 18 18 19 20
23 24 24 26 28 29 29 25 24 23 22 22 21 19 19 19 19 19 18 18 18 18 18 17 17 17 17 18 18 18 19 20
24 25 25 29 27 30 24 23 23 22 20 19 19 19 19 18 18 19 19 19 19 19 18 17 17 18 18 18 18 19 20 20
Height
724 719 730 752 774 767 816 823 832 818 793 763 751 750 745 742 740 739 740 743 750 755 759 764 768 773 776 781 784 787 789 793
720 716 722 737 743 784 812 833 837 823 816 805 767 761 749 738 742 748 738 742 748 752 757 761 764 769 774 779 782 787 789 791
736 744 749 751 764 779 793 812 840 841 819 761 755 753 751 738 732 740 737 741 745 750 756 760 765 769 774 779 783 787 791 794
753 730 722 733 750 770 804 800 814 818 804 731 740 736 739 738 736 736 735 739 743 749 755 761 765 770 774 778 783 788 792 796
777 758 737 742 733 751 774 789 800 814 794 731 725 732 731 734 737 737 737 741 744 750 755 760 764 766 770 777 782 788 792 796
800 778 757 762 742 737 764 793 791 788 760 737 733 730 725 729 728 731 730 738 742 746 749 753 755 758 763 767 772 775 781 787
761 753 743 741 740 740 752 758 766 762 762 741 728 728 719 715 721 727 735 738 738 740 743 748 751 754 757 759 764 769 775 780
753 746 747 746 741 738 738 737 740 752 753 732 729 725 728 730 730 735 733 729 731 733 739 744 742 746 750 755 758 762 764 769
772 756 751 772 751 751 752 748 749 770 750 731 735 732 735 735 735 734 729 724 725 727 728 730 730 734 740 743 748 756 761 767
781 766 794 760 737 735 750 752 749 748 744 738 736 731 732 732 732 731 726 729 727 726 725 723 730 746 758 767 773 766 754 761
782 791 767 752 744 741 758 769 747 750 744 739 732 731 734 731 731 738 738 733 727 723 726 735 740 746 752 757 763 784 784 784
779 780 790 761 734 727 734 784 747 745 745 742 741 767 755 736 732 733 732 729 724 720 729 737 749 753 759 759 762 748 768 763
778 777 768 738 729 722 767 784 744 740 741 744 752 752 740 742 739 740 739 736 734 732 733 738 741 740 745 748 752 764 770 719
776 783 782 728 731 756 753 742 739 738 739 742 741 737 740 745 745 745 742 743 739 744 745 744 741 736 735 748 749 743 749 725
754 762 736 728 732 732 734 737 735 736 738 738 738 740 747 753 751 748 745 744 743 744 748 749 745 743 751 760 758 751 739 746
744 743 738 734 731 728 730 732 737 737 739 738 744 746 752 755 755 752 751 750 750 748 751 752 753 753 755 757 757 754 758 761
753 743 739 735 731 730 730 734 738 739 742 747 749 753 754 757 758 759 760 756 755 756 757 757 757 757 761 763 760 758 762 767
757 739 741 738 730 728 732 740 742 743 749 753 753 757 758 758 760 759 761 761 761 763 765 765 767 766 766 763 765 763 766 768
734 729 730 728 729 728 737 745 747 749 755 759 761 761 760 764 766 766 767 765 767 767 768 770 767 766 765 764 768 768 771 769
Wind_Speed
7 7 10 4 1 7 7 3 2 3 6 9 1 3 6 4 11 12 15 16 17 15 23 25 28 31 34 32 30 28 26 22
9 4 3 10 7 1 3 5 3 4 5 6 4 7 5 4 5 7 12 15 13 14 22 26 31 33 34 31 32 28 26 22
3 2 9 1 2 6 6 5 6 3 6 8 11 9 11 13 15 9 14 14 14 13 22 26 28 30 33 29 28 28 24 21
4 8 4 6 7 6 5 4 3 5 6 3 8 14 14 20 11 11 15 14 14 15 21 21 25 27 30 29 27 27 24 22
9 8 6 2 3 6 4 3 4 5 5 5 4 10 19 19 10 10 11 11 12 12 16 20 23 27 29 29 28 26 25 23
6 6 3 6 6 4 6 3 4 5 4 1 4 7 13 16 17 18 17 14 14 14 14 24 27 30 32 33 31 32 31 29
5 6 3 4 1 5 6 5 5 6 8 8 11 11 20 24 20 15 10 14 17 17 16 23 25 27 32 36 34 33 32 34
3 6 6 3 6 3 5 1 2 7 5 5 8 9 4 7 10 7 11 16 17 17 16 22 29 30 33 33 36 35 37 40
3 2 3 5 6 10 7 8 4 6 5 2 8 12 8 6 6 8 13 16 18 19 20 30 34 37 35 39 41 36 40 40
3 3 3 5 6 18 16 8 7 7 8 6 3 3 6 6 8 6 3 6 9 13 23 32 28 17 6 10 9 11 39 39
5 4 4 3 3 1 7 5 4 6 7 6 5 4 5 7 8 8 4 7 9 21 15 12 19 22 20 13 20 20 42 17
3 5 6 4 7 4 6 3 3 6 5 6 6 4 5 7 9 12 15 17 17 8 28 31 24 22 15 15 23 43 51 29
2 2 1 4 7 2 4 6 2 3 4 4 2 4 6 8 10 14 14 19 21 21 28 29 21 18 13 26 20 13 47 40
3 4 3 3 4 7 6 3 4 4 4 6 6 8 11 9 8 10 13 15 16 16 13 14 11 10 16 17 16 17 26 18
5 5 4 3 9 4 5 4 2 4 5 3 6 7 13 9 9 10 14 13 12 12 11 12 13 26 29 27 15 15 21 17
5 7 6 7 4 6 4 4 7 6 7 8 9 13 12 8 5 7 11 13 15 18 16 15 21 20 22 12 5 7 16 20
5 3 6 5 5 4 4 9 8 9 11 12 14 9 8 7 6 10 14 12 16 16 16 16 20 14 9 8 3 6 12 16
4 5 5 3 3 4 5 9 5 10 11 12 12 7 8 9 9 13 15 14 12 10 9 5 2 2 2 7 6 7 9 10
5 5 6 4 6 2 11 11 11 16 12 15 16 16 19 13 11 16 15 14 9 7 8 8 9 12 12 9 6 3 4 7
Wind_Direction
235 180 137 239 130 169 104 30 83 239 299 302 88 206 215 44 16 170 170 175 178 167 166 168 169 177 184 187 189 189 186 190
307 117 27 139 163 130 19 145 208 293 284 236 233 203 273 28 248 254 164 170 166 167 166 170 175 181 188 193 196 192 194 195
1 344 140 33 39 53 120 133 157 177 259 216 205 185 176 203 224 210 173 161 162 165 170 171 175 179 188 192 193 197 197 198
213 290 257 147 165 137 123 255 198 168 268 233 177 185 191 199 219 195 173 164 160 162 166 166 172 179 187 191 194 197 203 204
347 355 8 347 189 143 110 84 186 143 262 326 153 191 192 194 187 158 158 163 161 159 169 173 174 179 183 191 195 198 204 206
185 211 228 284 214 197 124 114 176 213 243 121 204 167 169 177 165 173 176 171 164 171 179 181 179 178 182 190 196 198 201 202
165 233 283 315 309 233 186 205 149 231 200 238 200 174 169 173 173 161 157 167 181 184 185 185 183 185 185 192 195 199 203 201
348 334 338 286 330 195 243 280 327 86 272 318 10 29 57 145 161 182 192 184 193 193 187 187 190 187 189 190 196 199 195 192
230 320 15 13 347 82 53 25 112 65 289 39 48 69 70 64 205 219 205 204 196 197 195 196 194 191 190 191 192 188 188 185
171 55 102 228 100 95 83 50 44 63 24 55 111 106 96 100 82 41 334 245 229 215 212 208 200 193 168 36 33 187 183 181
127 148 258 60 358 19 115 17 3 62 31 20 3 358 9 41 101 117 68 330 292 236 225 164 158 141 119 91 33 348 348 259
98 131 192 238 291 110 121 55 320 84 38 18 27 47 288 31 47 40 38 25 347 140 99 104 95 92 65 23 2 347 309 291
114 154 301 235 286 359 106 219 302 71 45 21 59 190 253 92 70 64 57 54 62 93 101 107 116 127 74 358 10 8 332 220
87 97 233 231 19 112 195 198 97 35 23 12 346 336 54 79 75 70 65 59 87 93 100 126 159 178 126 169 146 74 30 68
154 200 224 354 129 131 149 116 32 39 21 33 9 17 105 93 87 84 90 84 88 87 106 140 169 150 140 152 165 139 131 124
81 348 102 110 94 106 107 97 75 88 61 45 51 90 105 101 83 85 68 75 91 98 106 122 149 139 151 164 160 134 146 158
63 41 78 44 86 100 59 74 96 72 66 69 84 74 105 100 79 80 87 85 99 108 117 130 167 185 182 184 196 169 172 167
192 215 142 192 181 125 67 118 93 83 65 58 85 89 81 105 105 106 126 131 113 90 90 102 246 274 183 198 240 206 208 184
152 174 152 155 152 83 86 88 86 80 82 82 60 73 74 80 92 97 105 106 88 64 50 37 59 51 24 21 338 1 269 159